| time (UTC) | temp F | wind direction | speed MPH | gust MPH | rain 1hr in | rain 24hr in | rain mn in | humidity % | barometer mb |
| 20260510201046 | 89 | 133 | 4.0 | 12.0 | 0.00 | 0.00 | 0.00 | 8 | 1009.0 |
| 20260510200545 | 89 | 126 | 5.0 | 12.0 | 0.00 | 0.00 | 0.00 | 8 | 1009.2 |
| 20260510200046 | 88 | 134 | 5.0 | 12.0 | 0.00 | 0.00 | 0.00 | 8 | 1009.3 |
| 20260510195544 | 88 | 81 | 5.0 | 13.0 | 0.00 | 0.00 | 0.00 | 8 | 1009.3 |
| 20260510195045 | 88 | 131 | 6.0 | 17.0 | 0.00 | 0.00 | 0.00 | 8 | 1009.3 |
| 20260510194544 | 88 | 102 | 7.0 | 17.0 | 0.00 | 0.00 | 0.00 | 8 | 1009.4 |
| 20260510194043 | 87 | 124 | 6.0 | 14.0 | 0.00 | 0.00 | 0.00 | 8 | 1009.6 |
| 20260510193541 | 87 | 119 | 7.0 | 15.0 | 0.00 | 0.00 | 0.00 | 7 | 1009.7 |
| 20260510193040 | 87 | 93 | 5.0 | 12.0 | 0.00 | 0.00 | 0.00 | 8 | 1009.7 |
| 20260510192539 | 87 | 91 | 6.0 | 14.0 | 0.00 | 0.00 | 0.00 | 8 | 1009.8 |
| 20260510192039 | 86 | 96 | 6.0 | 15.0 | 0.00 | 0.00 | 0.00 | 8 | 1009.8 |
| 20260510191545 | 87 | 154 | 7.0 | 15.0 | 0.00 | 0.00 | 0.00 | 8 | 1010.0 |
| 20260510191037 | 86 | 57 | 7.0 | 15.0 | 0.00 | 0.00 | 0.00 | 8 | 1010.0 |
| 20260510190537 | 84 | 126 | 5.0 | 14.0 | 0.00 | 0.00 | 0.00 | 8 | 1010.0 |
| 20260510190041 | 85 | 147 | 7.0 | 13.0 | 0.00 | 0.00 | 0.00 | 8 | 1010.1 |
| 20260510185535 | 85 | 88 | 5.0 | 11.0 | 0.00 | 0.00 | 0.00 | 8 | 1010.2 |
| 20260510185034 | 85 | 61 | 6.0 | 14.0 | 0.00 | 0.00 | 0.00 | 8 | 1010.2 |
| 20260510184535 | 84 | 134 | 7.0 | 14.0 | 0.00 | 0.00 | 0.00 | 8 | 1010.3 |
| 20260510184034 | 84 | 119 | 6.0 | 12.0 | 0.00 | 0.00 | 0.00 | 8 | 1010.4 |
| 20260510183533 | 85 | 74 | 3.0 | 12.0 | 0.00 | 0.00 | 0.00 | 8 | 1010.4 |
| 20260510183041 | 84 | 90 | 5.0 | 12.0 | 0.00 | 0.00 | 0.00 | 8 | 1010.5 |
| 20260510182533 | 84 | 84 | 4.0 | 11.0 | 0.00 | 0.00 | 0.00 | 8 | 1010.5 |
| 20260510182032 | 84 | 93 | 4.0 | 13.0 | 0.00 | 0.00 | 0.00 | 8 | 1010.6 |
| 20260510181543 | 83 | 86 | 5.0 | 13.0 | 0.00 | 0.00 | 0.00 | 8 | 1010.6 |
| 20260510181030 | 82 | 89 | 5.0 | 16.0 | 0.00 | 0.00 | 0.00 | 9 | 1010.7 |
| 20260510180529 | 82 | 111 | 8.0 | 16.0 | 0.00 | 0.00 | 0.00 | 8 | 1010.7 |
| 20260510180033 | 82 | 58 | 7.0 | 15.0 | 0.00 | 0.00 | 0.00 | 9 | 1010.7 |
| 20260510175528 | 82 | 71 | 5.0 | 15.0 | 0.00 | 0.00 | 0.00 | 9 | 1010.8 |
| 20260510175027 | 81 | 73 | 7.0 | 14.0 | 0.00 | 0.00 | 0.00 | 9 | 1010.8 |
| 20260510174527 | 81 | 76 | 7.0 | 14.0 | 0.00 | 0.00 | 0.00 | 9 | 1010.7 |
| 20260510174026 | 81 | 83 | 7.0 | 13.0 | 0.00 | 0.00 | 0.00 | 9 | 1010.8 |
| 20260510173525 | 81 | 107 | 6.0 | 11.0 | 0.00 | 0.00 | 0.00 | 9 | 1010.9 |
| 20260510173027 | 81 | 113 | 5.0 | 10.0 | 0.00 | 0.00 | 0.00 | 9 | 1010.9 |
| 20260510172526 | 81 | 80 | 6.0 | 11.0 | 0.00 | 0.00 | 0.00 | 9 | 1010.9 |
| 20260510172026 | 81 | 73 | 6.0 | 11.0 | 0.00 | 0.00 | 0.00 | 9 | 1011.0 |
| 20260510171524 | 80 | 48 | 4.0 | 11.0 | 0.00 | 0.00 | 0.00 | 11 | 1010.9 |
| 20260510171023 | 79 | 43 | 5.0 | 10.0 | 0.00 | 0.00 | 0.00 | 11 | 1011.0 |
| 20260510170522 | 79 | 71 | 4.0 | 10.0 | 0.00 | 0.00 | 0.00 | 10 | 1011.2 |
| 20260510170023 | 78 | 45 | 3.0 | 9.0 | 0.00 | 0.00 | 0.00 | 10 | 1011.2 |
| 20260510165521 | 78 | 46 | 4.0 | 9.0 | 0.00 | 0.00 | 0.00 | 10 | 1011.3 |
| 20260510165018 | 78 | 43 | 3.0 | 9.0 | 0.00 | 0.00 | 0.00 | 10 | 1011.3 |
| 20260510164522 | 77 | 46 | 2.0 | 9.0 | 0.00 | 0.00 | 0.00 | 10 | 1011.4 |
| 20260510164019 | 77 | 83 | 2.0 | 8.0 | 0.00 | 0.00 | 0.00 | 10 | 1011.3 |
| 20260510163517 | 77 | 46 | 4.0 | 8.0 | 0.00 | 0.00 | 0.00 | 10 | 1011.4 |
| 20260510163018 | 76 | 34 | 2.0 | 6.0 | 0.00 | 0.00 | 0.00 | 10 | 1011.4 |
| 20260510162515 | 75 | 51 | 2.0 | 5.0 | 0.00 | 0.00 | 0.00 | 10 | 1011.4 |
| 20260510162014 | 75 | 45 | 2.0 | 6.0 | 0.00 | 0.00 | 0.00 | 10 | 1011.5 |
| 20260510161515 | 74 | 46 | 3.0 | 6.0 | 0.00 | 0.00 | 0.00 | 11 | 1011.4 |
| 20260510161011 | 73 | 9 | 1.0 | 4.0 | 0.00 | 0.00 | 0.00 | 12 | 1011.5 |
| 20260510160510 | 72 | 14 | 1.0 | 4.0 | 0.00 | 0.00 | 0.00 | 13 | 1011.5 |
| 20260510160008 | 72 | 76 | 2.0 | 3.0 | 0.00 | 0.00 | 0.00 | 13 | 1011.4 |
| 20260510155508 | 71 | 18 | 1.0 | 3.0 | 0.00 | 0.00 | 0.00 | 13 | 1011.4 |
| 20260510155005 | 70 | 39 | 0.0 | 3.0 | 0.00 | 0.00 | 0.00 | 13 | 1011.4 |
| 20260510154505 | 69 | 37 | 1.0 | 3.0 | 0.00 | 0.00 | 0.00 | 14 | 1011.4 |
| 20260510154002 | 69 | 40 | 1.0 | 3.0 | 0.00 | 0.00 | 0.00 | 14 | 1011.5 |
| 20260510153502 | 68 | 40 | 1.0 | 3.0 | 0.00 | 0.00 | 0.00 | 15 | 1011.5 |
| 20260510153101 | 67 | 19 | 0.0 | 2.0 | 0.00 | 0.00 | 0.00 | 14 | 1011.5 |
| 20260510152603 | 67 | 29 | 0.0 | 3.0 | 0.00 | 0.00 | 0.00 | 14 | 1011.6 |
| 20260510152059 | 66 | 34 | 0.0 | 3.0 | 0.00 | 0.00 | 0.00 | 16 | 1011.6 |
| 20260510151607 | 66 | 27 | 1.0 | 3.0 | 0.00 | 0.00 | 0.00 | 16 | 1011.6 |
| 20260510151100 | 65 | 25 | 0.0 | 3.0 | 0.00 | 0.00 | 0.00 | 16 | 1011.6 |
| 20260510150555 | 64 | 57 | 1.0 | 3.0 | 0.00 | 0.00 | 0.00 | 16 | 1011.6 |
| 20260510145553 | 62 | 355 | 0.0 | 2.0 | 0.00 | 0.00 | 0.00 | 18 | 1011.6 |
| 20260510145051 | 62 | 355 | 0.0 | 1.0 | 0.00 | 0.00 | 0.00 | 19 | 1011.6 |
| 20260510144553 | 61 | 355 | 0.0 | 2.0 | 0.00 | 0.00 | 0.00 | 18 | 1011.6 |
| 20260510144049 | 60 | 355 | 0.0 | 2.0 | 0.00 | 0.00 | 0.00 | 19 | 1011.6 |
| 20260510143549 | 59 | 355 | 0.0 | 1.0 | 0.00 | 0.00 | 0.00 | 19 | 1011.5 |
| 20260510143049 | 59 | 355 | 0.0 | 1.0 | 0.00 | 0.00 | 0.00 | 19 | 1011.5 |
| 20260510142548 | 58 | 355 | 0.0 | 1.0 | 0.00 | 0.00 | 0.00 | 19 | 1011.5 |
| 20260510142048 | 58 | 355 | 0.0 | 1.0 | 0.00 | 0.00 | 0.00 | 20 | 1011.5 |
| 20260510141548 | 58 | 355 | 0.0 | 3.0 | 0.00 | 0.00 | 0.00 | 20 | 1011.4 |
| 20260510141046 | 58 | 355 | 0.0 | 3.0 | 0.00 | 0.00 | 0.00 | 21 | 1011.3 |
| 20260510140547 | 58 | 350 | 0.0 | 3.0 | 0.00 | 0.00 | 0.00 | 22 | 1011.3 |
| 20260510140047 | 58 | 348 | 1.0 | 3.0 | 0.00 | 0.00 | 0.00 | 23 | 1011.3 |
| 20260510135546 | 57 | 217 | 0.0 | 2.0 | 0.00 | 0.00 | 0.00 | 19 | 1011.2 |
| 20260510135047 | 56 | 217 | 1.0 | 3.0 | 0.00 | 0.00 | 0.00 | 19 | 1011.2 |
| 20260510134552 | 55 | 217 | 1.0 | 3.0 | 0.00 | 0.00 | 0.00 | 19 | 1011.2 |
| 20260510134045 | 54 | 217 | 0.0 | 3.0 | 0.00 | 0.00 | 0.00 | 20 | 1011.1 |
| 20260510133546 | 53 | 217 | 1.0 | 3.0 | 0.00 | 0.00 | 0.00 | 21 | 1011.0 |
| 20260510133043 | 51 | 217 | 1.0 | 2.0 | 0.00 | 0.00 | 0.00 | 21 | 1011.0 |
| 20260510132542 | 51 | 217 | 0.0 | 2.0 | 0.00 | 0.00 | 0.00 | 21 | 1011.0 |
| 20260510132043 | 50 | 217 | 0.0 | 3.0 | 0.00 | 0.00 | 0.00 | 21 | 1011.0 |
| 20260510131541 | 50 | 217 | 1.0 | 3.0 | 0.00 | 0.00 | 0.00 | 22 | 1010.9 |
| 20260510131044 | 50 | 217 | 1.0 | 3.0 | 0.00 | 0.00 | 0.00 | 22 | 1010.9 |
| 20260510130540 | 50 | 217 | 1.0 | 2.0 | 0.00 | 0.00 | 0.00 | 21 | 1010.9 |
| 20260510130041 | 50 | 217 | 0.0 | 3.0 | 0.00 | 0.00 | 0.00 | 21 | 1010.8 |
| 20260510125538 | 50 | 217 | 1.0 | 3.0 | 0.00 | 0.00 | 0.00 | 21 | 1010.8 |
| 20260510125038 | 51 | 217 | 0.0 | 3.0 | 0.00 | 0.00 | 0.00 | 21 | 1010.7 |
| 20260510124540 | 50 | 217 | 1.0 | 3.0 | 0.00 | 0.00 | 0.00 | 21 | 1010.7 |
| 20260510124041 | 51 | 217 | 2.0 | 3.0 | 0.00 | 0.00 | 0.00 | 21 | 1010.7 |
| 20260510123537 | 51 | 218 | 2.0 | 3.0 | 0.00 | 0.00 | 0.00 | 21 | 1010.7 |
| 20260510123037 | 51 | 216 | 2.0 | 3.0 | 0.00 | 0.00 | 0.00 | 20 | 1010.7 |
| 20260510122536 | 51 | 215 | 2.0 | 3.0 | 0.00 | 0.00 | 0.00 | 20 | 1010.8 |
| 20260510122036 | 51 | 215 | 1.0 | 3.0 | 0.00 | 0.00 | 0.00 | 20 | 1010.8 |
| 20260510121536 | 51 | 219 | 2.0 | 3.0 | 0.00 | 0.00 | 0.00 | 20 | 1010.8 |
| 20260510121036 | 51 | 221 | 1.0 | 4.0 | 0.00 | 0.00 | 0.00 | 20 | 1010.8 |
| 20260510120535 | 51 | 223 | 2.0 | 3.0 | 0.00 | 0.00 | 0.00 | 21 | 1010.8 |
| 20260510120036 | 51 | 224 | 1.0 | 3.0 | 0.00 | 0.00 | 0.00 | 21 | 1010.8 |
| 20260510115534 | 51 | 224 | 1.0 | 4.0 | 0.00 | 0.00 | 0.00 | 21 | 1010.8 |
| 20260510115033 | 51 | 224 | 2.0 | 4.0 | 0.00 | 0.00 | 0.00 | 21 | 1010.7 |
| 20260510114534 | 51 | 215 | 2.0 | 4.0 | 0.00 | 0.00 | 0.00 | 21 | 1010.7 |
| 20260510114032 | 51 | 219 | 1.0 | 4.0 | 0.00 | 0.00 | 0.00 | 21 | 1010.8 |
| 20260510113533 | 52 | 219 | 2.0 | 4.0 | 0.00 | 0.00 | 0.00 | 20 | 1010.8 |
| 20260510113032 | 51 | 222 | 2.0 | 4.0 | 0.00 | 0.00 | 0.00 | 21 | 1010.9 |
| 20260510112532 | 51 | 221 | 1.0 | 4.0 | 0.00 | 0.00 | 0.00 | 21 | 1010.9 |
| 20260510112032 | 51 | 221 | 2.0 | 4.0 | 0.00 | 0.00 | 0.00 | 21 | 1010.8 |
| 20260510111535 | 52 | 213 | 0.0 | 3.0 | 0.00 | 0.00 | 0.00 | 21 | 1010.8 |
| 20260510111030 | 52 | 214 | 0.0 | 3.0 | 0.00 | 0.00 | 0.00 | 21 | 1010.9 |
| 20260510110532 | 52 | 213 | 1.0 | 3.0 | 0.00 | 0.00 | 0.00 | 21 | 1010.8 |
| 20260510110038 | 53 | 213 | 0.0 | 2.0 | 0.00 | 0.00 | 0.00 | 20 | 1010.7 |
| 20260510105529 | 53 | 213 | 0.0 | 3.0 | 0.00 | 0.00 | 0.00 | 20 | 1010.7 |
| 20260510105026 | 53 | 213 | 1.0 | 3.0 | 0.00 | 0.00 | 0.00 | 20 | 1010.6 |
| 20260510104528 | 53 | 214 | 2.0 | 3.0 | 0.00 | 0.00 | 0.00 | 20 | 1010.6 |
| 20260510104027 | 53 | 213 | 2.0 | 3.0 | 0.00 | 0.00 | 0.00 | 20 | 1010.6 |
| 20260510103527 | 53 | 215 | 2.0 | 4.0 | 0.00 | 0.00 | 0.00 | 20 | 1010.6 |
| 20260510103032 | 53 | 218 | 2.0 | 4.0 | 0.00 | 0.00 | 0.00 | 20 | 1010.6 |
| 20260510102532 | 53 | 217 | 2.0 | 4.0 | 0.00 | 0.00 | 0.00 | 20 | 1010.6 |
| 20260510102026 | 53 | 221 | 2.0 | 3.0 | 0.00 | 0.00 | 0.00 | 20 | 1010.6 |
| 20260510101525 | 53 | 220 | 2.0 | 3.0 | 0.00 | 0.00 | 0.00 | 20 | 1010.6 |
| 20260510101025 | 53 | 222 | 1.0 | 2.0 | 0.00 | 0.00 | 0.00 | 21 | 1010.6 |
| 20260510100526 | 53 | 222 | 0.0 | 2.0 | 0.00 | 0.00 | 0.00 | 21 | 1010.5 |
| 20260510100024 | 54 | 222 | 0.0 | 2.0 | 0.00 | 0.00 | 0.00 | 20 | 1010.5 |
| 20260510095523 | 54 | 222 | 1.0 | 3.0 | 0.00 | 0.00 | 0.00 | 19 | 1010.5 |
| 20260510095024 | 55 | 222 | 0.0 | 3.0 | 0.00 | 0.00 | 0.00 | 19 | 1010.5 |
| 20260510094521 | 55 | 222 | 2.0 | 4.0 | 0.00 | 0.00 | 0.00 | 19 | 1010.4 |
| 20260510094020 | 54 | 226 | 2.0 | 4.0 | 0.00 | 0.00 | 0.00 | 20 | 1010.3 |
| 20260510093520 | 54 | 219 | 2.0 | 4.0 | 0.00 | 0.00 | 0.00 | 20 | 1010.4 |
| 20260510093024 | 54 | 220 | 1.0 | 4.0 | 0.00 | 0.00 | 0.00 | 20 | 1010.4 |
| 20260510092523 | 54 | 206 | 2.0 | 4.0 | 0.00 | 0.00 | 0.00 | 20 | 1010.3 |
| 20260510092018 | 55 | 227 | 1.0 | 3.0 | 0.00 | 0.00 | 0.00 | 20 | 1010.3 |
| 20260510091518 | 55 | 227 | 1.0 | 3.0 | 0.00 | 0.00 | 0.00 | 20 | 1010.3 |
| 20260510091016 | 55 | 260 | 1.0 | 3.0 | 0.00 | 0.00 | 0.00 | 20 | 1010.3 |
| 20260510090515 | 56 | 316 | 0.0 | 2.0 | 0.00 | 0.00 | 0.00 | 20 | 1010.3 |
| 20260510090015 | 58 | 330 | 0.0 | 1.0 | 0.00 | 0.00 | 0.00 | 20 | 1010.4 |
| 20260510085512 | 58 | 330 | 0.0 | 2.0 | 0.00 | 0.00 | 0.00 | 20 | 1010.4 |
| 20260510085011 | 58 | 330 | 0.0 | 2.0 | 0.00 | 0.00 | 0.00 | 20 | 1010.4 |
| 20260510084512 | 58 | 264 | 0.0 | 2.0 | 0.00 | 0.00 | 0.00 | 19 | 1010.3 |
| 20260510084016 | 59 | 264 | 0.0 | 4.0 | 0.00 | 0.00 | 0.00 | 18 | 1010.4 |
| 20260510083513 | 59 | 264 | 1.0 | 4.0 | 0.00 | 0.00 | 0.00 | 18 | 1010.3 |
| 20260510083010 | 59 | 230 | 1.0 | 2.0 | 0.00 | 0.00 | 0.00 | 18 | 1010.3 |
| 20260510082512 | 59 | 230 | 1.0 | 3.0 | 0.00 | 0.00 | 0.00 | 18 | 1010.3 |
| 20260510082012 | 59 | 231 | 1.0 | 3.0 | 0.00 | 0.00 | 0.00 | 18 | 1010.3 |
| 20260510081510 | 60 | 227 | 2.0 | 3.0 | 0.00 | 0.00 | 0.00 | 17 | 1010.3 |
| 20260510081010 | 60 | 211 | 1.0 | 4.0 | 0.00 | 0.00 | 0.00 | 17 | 1010.3 |
| 20260510080514 | 61 | 217 | 2.0 | 4.0 | 0.00 | 0.00 | 0.00 | 17 | 1010.3 |
| 20260510080009 | 61 | 207 | 1.0 | 4.0 | 0.00 | 0.00 | 0.00 | 17 | 1010.4 |
| 20260510075514 | 61 | 208 | 2.0 | 5.0 | 0.00 | 0.00 | 0.00 | 17 | 1010.3 |
| 20260510075007 | 61 | 200 | 3.0 | 5.0 | 0.00 | 0.00 | 0.00 | 16 | 1010.3 |
| 20260510074507 | 60 | 208 | 3.0 | 4.0 | 0.00 | 0.00 | 0.00 | 16 | 1010.3 |
| 20260510074008 | 60 | 205 | 2.0 | 4.0 | 0.00 | 0.00 | 0.00 | 16 | 1010.2 |
| 20260510073511 | 60 | 211 | 2.0 | 4.0 | 0.00 | 0.00 | 0.00 | 16 | 1010.3 |
| 20260510073007 | 61 | 209 | 2.0 | 4.0 | 0.00 | 0.00 | 0.00 | 16 | 1010.3 |
| 20260510072506 | 60 | 203 | 3.0 | 4.0 | 0.00 | 0.00 | 0.00 | 16 | 1010.3 |
| 20260510072007 | 60 | 219 | 2.0 | 4.0 | 0.00 | 0.00 | 0.00 | 17 | 1010.3 |
| 20260510071503 | 59 | 215 | 1.0 | 3.0 | 0.00 | 0.00 | 0.00 | 17 | 1010.4 |
| 20260510071003 | 58 | 215 | 1.0 | 3.0 | 0.00 | 0.00 | 0.00 | 18 | 1010.3 |
| 20260510070504 | 58 | 228 | 1.0 | 3.0 | 0.00 | 0.00 | 0.00 | 19 | 1010.3 |
| 20260510070001 | 58 | 297 | 1.0 | 3.0 | 0.00 | 0.00 | 0.00 | 19 | 1010.3 |
| 20260510065501 | 59 | 355 | 0.0 | 3.0 | 0.00 | 0.00 | 0.00 | 20 | 1010.2 |
| 20260510065101 | 60 | 355 | 1.0 | 3.0 | 0.00 | 0.00 | 0.00 | 19 | 1010.1 |
| 20260510064612 | 61 | 211 | 1.0 | 2.0 | 0.00 | 0.00 | 0.00 | 17 | 1009.9 |
| 20260510064100 | 62 | 211 | 0.0 | 2.0 | 0.00 | 0.00 | 0.00 | 16 | 1009.8 |
| 20260510063600 | 63 | 211 | 0.0 | 2.0 | 0.00 | 0.00 | 0.00 | 15 | 1009.8 |
| 20260510063104 | 63 | 211 | 1.0 | 3.0 | 0.00 | 0.00 | 0.00 | 15 | 1009.7 |
| 20260510062559 | 63 | 210 | 2.0 | 3.0 | 0.00 | 0.00 | 0.00 | 15 | 1009.7 |
| 20260510062059 | 64 | 211 | 2.0 | 3.0 | 0.00 | 0.00 | 0.00 | 15 | 1009.7 |
| 20260510061559 | 64 | 207 | 2.0 | 3.0 | 0.00 | 0.00 | 0.00 | 15 | 1009.7 |
| 20260510061059 | 65 | 207 | 1.0 | 3.0 | 0.00 | 0.00 | 0.00 | 14 | 1009.7 |
| 20260510060559 | 65 | 207 | 1.0 | 3.0 | 0.00 | 0.00 | 0.00 | 14 | 1009.7 |
| 20260510060100 | 65 | 207 | 1.0 | 2.0 | 0.00 | 0.00 | 0.00 | 14 | 1009.6 |
| 20260510055558 | 65 | 207 | 0.0 | 3.0 | 0.00 | 0.00 | 0.00 | 14 | 1009.6 |
| 20260510055058 | 66 | 207 | 1.0 | 3.0 | 0.00 | 0.00 | 0.00 | 14 | 1009.6 |
| 20260510054558 | 66 | 207 | 2.0 | 3.0 | 0.00 | 0.00 | 0.00 | 14 | 1009.6 |
| 20260510054058 | 66 | 213 | 2.0 | 3.0 | 0.00 | 0.00 | 0.00 | 14 | 1009.6 |
| 20260510053556 | 66 | 213 | 1.0 | 3.0 | 0.00 | 0.00 | 0.00 | 15 | 1009.6 |
| 20260510053057 | 66 | 198 | 2.0 | 3.0 | 0.00 | 0.00 | 0.00 | 15 | 1009.6 |
| 20260510052559 | 65 | 219 | 0.0 | 3.0 | 0.00 | 0.00 | 0.00 | 15 | 1009.6 |
| 20260510052058 | 65 | 219 | 1.0 | 3.0 | 0.00 | 0.00 | 0.00 | 15 | 1009.6 |
| 20260510051603 | 66 | 219 | 1.0 | 3.0 | 0.00 | 0.00 | 0.00 | 15 | 1009.6 |
| 20260510051057 | 66 | 219 | 1.0 | 3.0 | 0.00 | 0.00 | 0.00 | 15 | 1009.6 |
| 20260510050556 | 66 | 219 | 2.0 | 3.0 | 0.00 | 0.00 | 0.00 | 14 | 1009.5 |
| 20260510050056 | 67 | 209 | 1.0 | 4.0 | 0.00 | 0.00 | 0.00 | 14 | 1009.5 |
| 20260510045556 | 67 | 202 | 2.0 | 4.0 | 0.00 | 0.00 | 0.00 | 15 | 1009.6 |
| 20260510045056 | 67 | 215 | 1.0 | 3.0 | 0.00 | 0.00 | 0.00 | 15 | 1009.6 |
| 20260510044556 | 67 | 221 | 0.0 | 2.0 | 0.00 | 0.00 | 0.00 | 15 | 1009.5 |
| 20260510044055 | 68 | 221 | 0.0 | 2.0 | 0.00 | 0.00 | 0.00 | 16 | 1009.4 |
| 20260510043555 | 68 | 221 | 0.0 | 1.0 | 0.00 | 0.00 | 0.00 | 15 | 1009.4 |
| 20260510043102 | 69 | 221 | 0.0 | 2.0 | 0.00 | 0.00 | 0.00 | 15 | 1009.4 |
| 20260510042556 | 69 | 221 | 0.0 | 2.0 | 0.00 | 0.00 | 0.00 | 15 | 1009.4 |
| 20260510042054 | 69 | 221 | 0.0 | 2.0 | 0.00 | 0.00 | 0.00 | 15 | 1009.3 |
| 20260510041609 | 70 | 221 | 1.0 | 2.0 | 0.00 | 0.00 | 0.00 | 14 | 1009.2 |
| 20260510041057 | 70 | 200 | 1.0 | 2.0 | 0.00 | 0.00 | 0.00 | 13 | 1009.2 |
| 20260510040554 | 71 | 200 | 0.0 | 2.0 | 0.00 | 0.00 | 0.00 | 13 | 1009.1 |
| 20260510040054 | 72 | 200 | 0.0 | 2.0 | 0.00 | 0.00 | 0.00 | 13 | 1009.1 |
| 20260510035553 | 72 | 200 | 0.0 | 2.0 | 0.00 | 0.00 | 0.00 | 13 | 1009.0 |
| 20260510035054 | 73 | 179 | 0.0 | 2.0 | 0.00 | 0.00 | 0.00 | 13 | 1008.9 |
| 20260510034553 | 73 | 169 | 1.0 | 5.0 | 0.00 | 0.00 | 0.00 | 13 | 1008.8 |
| 20260510034053 | 73 | 166 | 2.0 | 5.0 | 0.00 | 0.00 | 0.00 | 12 | 1008.8 |
| 20260510033552 | 74 | 263 | 2.0 | 4.0 | 0.00 | 0.00 | 0.00 | 13 | 1008.7 |
| 20260510033056 | 74 | 340 | 0.0 | 2.0 | 0.00 | 0.00 | 0.00 | 12 | 1008.6 |
| 20260510032552 | 75 | 39 | 0.0 | 2.0 | 0.00 | 0.00 | 0.00 | 11 | 1008.6 |
| 20260510032055 | 75 | 86 | 0.0 | 0.0 | 0.00 | 0.00 | 0.00 | 11 | 1008.5 |
| 20260510031557 | 76 | 86 | 0.0 | 1.0 | 0.00 | 0.00 | 0.00 | 11 | 1008.4 |
| 20260510031052 | 77 | 86 | 0.0 | 1.0 | 0.00 | 0.00 | 0.00 | 11 | 1008.4 |
| 20260510030551 | 77 | 86 | 0.0 | 2.0 | 0.00 | 0.00 | 0.00 | 10 | 1008.3 |
| 20260510030053 | 78 | 88 | 0.0 | 2.0 | 0.00 | 0.00 | 0.00 | 11 | 1008.3 |
| 20260510025552 | 78 | 79 | 0.0 | 2.0 | 0.00 | 0.00 | 0.00 | 11 | 1008.2 |
| 20260510025050 | 79 | 76 | 0.0 | 3.0 | 0.00 | 0.00 | 0.00 | 10 | 1008.1 |
| 20260510024558 | 79 | 71 | 2.0 | 3.0 | 0.00 | 0.00 | 0.00 | 10 | 1008.1 |
| 20260510024050 | 80 | 67 | 1.0 | 3.0 | 0.00 | 0.00 | 0.00 | 10 | 1008.1 |
| 20260510023550 | 81 | 88 | 0.0 | 2.0 | 0.00 | 0.00 | 0.00 | 9 | 1008.0 |
| 20260510023050 | 82 | 60 | 0.0 | 2.0 | 0.00 | 0.00 | 0.00 | 9 | 1008.0 |
| 20260510022555 | 83 | 60 | 0.0 | 2.0 | 0.00 | 0.00 | 0.00 | 9 | 1008.0 |
| 20260510022050 | 83 | 60 | 0.0 | 4.0 | 0.00 | 0.00 | 0.00 | 9 | 1007.9 |
| 20260510021549 | 84 | 46 | 1.0 | 5.0 | 0.00 | 0.00 | 0.00 | 8 | 1007.9 |
| 20260510021052 | 84 | 71 | 2.0 | 5.0 | 0.00 | 0.00 | 0.00 | 9 | 1008.0 |
| 20260510020549 | 84 | 37 | 1.0 | 4.0 | 0.00 | 0.00 | 0.00 | 8 | 1008.0 |
| 20260510020052 | 84 | 84 | 0.0 | 3.0 | 0.00 | 0.00 | 0.00 | 8 | 1008.1 |
| 20260510015549 | 84 | 126 | 2.0 | 3.0 | 0.00 | 0.00 | 0.00 | 8 | 1008.1 |
| 20260510015047 | 85 | 157 | 0.0 | 3.0 | 0.00 | 0.00 | 0.00 | 8 | 1008.1 |
| 20260510014547 | 85 | 157 | 2.0 | 8.0 | 0.00 | 0.00 | 0.00 | 8 | 1008.1 |
| 20260510014047 | 87 | 76 | 2.0 | 8.0 | 0.00 | 0.00 | 0.00 | 8 | 1008.2 |
| 20260510013548 | 88 | 44 | 2.0 | 4.0 | 0.00 | 0.00 | 0.00 | 7 | 1008.1 |
| 20260510013059 | 88 | 57 | 0.0 | 2.0 | 0.00 | 0.00 | 0.00 | 7 | 1008.2 |
| 20260510012548 | 88 | 337 | 0.0 | 4.0 | 0.00 | 0.00 | 0.00 | 7 | 1008.1 |
| 20260510012046 | 86 | 29 | 1.0 | 5.0 | 0.00 | 0.00 | 0.00 | 8 | 1008.1 |
| 20260510011545 | 85 | 96 | 0.0 | 5.0 | 0.00 | 0.00 | 0.00 | 8 | 1008.2 |
| 20260510011049 | 85 | 178 | 1.0 | 6.0 | 0.00 | 0.00 | 0.00 | 8 | 1008.2 |
| 20260510010544 | 85 | 71 | 1.0 | 12.0 | 0.00 | 0.00 | 0.00 | 8 | 1008.2 |
| 20260510010059 | 85 | 95 | 4.0 | 12.0 | 0.00 | 0.00 | 0.00 | 8 | 1008.3 |
| 20260510005544 | 86 | 70 | 2.0 | 8.0 | 0.00 | 0.00 | 0.00 | 8 | 1008.3 |
| 20260510005045 | 85 | 113 | 3.0 | 8.0 | 0.00 | 0.00 | 0.00 | 8 | 1008.3 |
| 20260510004546 | 85 | 142 | 2.0 | 8.0 | 0.00 | 0.00 | 0.00 | 8 | 1008.3 |
| 20260510004042 | 86 | 151 | 1.0 | 5.0 | 0.00 | 0.00 | 0.00 | 8 | 1008.3 |
| 20260510003543 | 87 | 175 | 3.0 | 5.0 | 0.00 | 0.00 | 0.00 | 8 | 1008.3 |
| 20260510003042 | 90 | 131 | 1.0 | 5.0 | 0.00 | 0.00 | 0.00 | 7 | 1008.4 |
| 20260510002541 | 89 | 355 | 1.0 | 5.0 | 0.00 | 0.00 | 0.00 | 7 | 1008.4 |
| 20260510002041 | 89 | 5 | 1.0 | 6.0 | 0.00 | 0.00 | 0.00 | 7 | 1008.4 |
| 20260510001541 | 88 | 172 | 1.0 | 6.0 | 0.00 | 0.00 | 0.00 | 7 | 1008.4 |
| 20260510001043 | 88 | 108 | 1.0 | 7.0 | 0.00 | 0.00 | 0.00 | 7 | 1008.5 |
| 20260510000543 | 88 | 77 | 2.0 | 7.0 | 0.00 | 0.00 | 0.00 | 7 | 1008.6 |
| 20260510000043 | 88 | 336 | 0.0 | 6.0 | 0.00 | 0.00 | 0.00 | 7 | 1008.5 |
| 20260509235539 | 88 | 274 | 0.0 | 6.0 | 0.00 | 0.00 | 0.00 | 7 | 1008.5 |
| 20260509235038 | 87 | 97 | 3.0 | 9.0 | 0.00 | 0.00 | 0.00 | 7 | 1008.6 |
| 20260509234557 | 88 | 57 | 4.0 | 9.0 | 0.00 | 0.00 | 0.00 | 8 | 1008.7 |
| 20260509234042 | 87 | 65 | 1.0 | 4.0 | 0.00 | 0.00 | 0.00 | 8 | 1008.7 |
| 20260509233539 | 87 | 175 | 2.0 | 8.0 | 0.00 | 0.00 | 0.00 | 8 | 1008.7 |
| 20260509233037 | 88 | 53 | 2.0 | 12.0 | 0.00 | 0.00 | 0.00 | 8 | 1008.7 |
| 20260509232540 | 88 | 38 | 5.0 | 12.0 | 0.00 | 0.00 | 0.00 | 9 | 1008.7 |
| 20260509232036 | 90 | 41 | 4.0 | 10.0 | 0.00 | 0.00 | 0.00 | 8 | 1008.8 |
| 20260509231537 | 90 | 318 | 1.0 | 5.0 | 0.00 | 0.00 | 0.00 | 8 | 1008.8 |
| 20260509231034 | 89 | 63 | 1.0 | 5.0 | 0.00 | 0.00 | 0.00 | 8 | 1008.8 |
| 20260509230540 | 88 | 52 | 2.0 | 5.0 | 0.00 | 0.00 | 0.00 | 8 | 1008.9 |
| 20260509230034 | 88 | 82 | 1.0 | 7.0 | 0.00 | 0.00 | 0.00 | 8 | 1009.0 |
| 20260509225533 | 89 | 173 | 0.0 | 7.0 | 0.00 | 0.00 | 0.00 | 8 | 1009.1 |
| 20260509225031 | 88 | 38 | 2.0 | 7.0 | 0.00 | 0.00 | 0.00 | 8 | 1009.1 |
| 20260509224531 | 87 | 77 | 1.0 | 5.0 | 0.00 | 0.00 | 0.00 | 8 | 1009.2 |
| 20260509224030 | 88 | 267 | 1.0 | 6.0 | 0.00 | 0.00 | 0.00 | 8 | 1009.3 |
| 20260509223529 | 88 | 81 | 3.0 | 9.0 | 0.00 | 0.00 | 0.00 | 8 | 1009.4 |
| 20260509223029 | 88 | 89 | 4.0 | 11.0 | 0.00 | 0.00 | 0.00 | 8 | 1009.6 |
| 20260509222528 | 89 | 77 | 4.0 | 11.0 | 0.00 | 0.00 | 0.00 | 8 | 1009.6 |
| 20260509222027 | 89 | 333 | 1.0 | 9.0 | 0.00 | 0.00 | 0.00 | 7 | 1009.7 |
| 20260509221538 | 89 | 355 | 5.0 | 9.0 | 0.00 | 0.00 | 0.00 | 8 | 1009.7 |
| 20260509221027 | 88 | 58 | 2.0 | 8.0 | 0.00 | 0.00 | 0.00 | 8 | 1009.9 |
| 20260509220526 | 89 | 258 | 1.0 | 6.0 | 0.00 | 0.00 | 0.00 | 8 | 1010.0 |
| 20260509220027 | 88 | 59 | 3.0 | 9.0 | 0.00 | 0.00 | 0.00 | 8 | 1010.0 |
| 20260509215524 | 87 | 41 | 3.0 | 9.0 | 0.00 | 0.00 | 0.00 | 8 | 1010.0 |
| 20260509215023 | 85 | 42 | 2.0 | 5.0 | 0.00 | 0.00 | 0.00 | 9 | 1010.0 |
| 20260509214523 | 83 | 289 | 1.0 | 5.0 | 0.00 | 0.00 | 0.00 | 10 | 1010.1 |
| 20260509214021 | 83 | 174 | 2.0 | 8.0 | 0.00 | 0.00 | 0.00 | 10 | 1010.1 |
| 20260509213520 | 85 | 170 | 3.0 | 9.0 | 0.00 | 0.00 | 0.00 | 9 | 1010.2 |
| 20260509213022 | 87 | 86 | 2.0 | 10.0 | 0.00 | 0.00 | 0.00 | 9 | 1010.2 |
| 20260509212526 | 86 | 67 | 4.0 | 10.0 | 0.00 | 0.00 | 0.00 | 9 | 1010.3 |
| 20260509212019 | 86 | 59 | 2.0 | 9.0 | 0.00 | 0.00 | 0.00 | 9 | 1010.3 |
| 20260509211520 | 85 | 159 | 2.0 | 11.0 | 0.00 | 0.00 | 0.00 | 10 | 1010.4 |
| 20260509211019 | 85 | 90 | 5.0 | 11.0 | 0.00 | 0.00 | 0.00 | 10 | 1010.5 |
| 20260509210519 | 84 | 90 | 2.0 | 10.0 | 0.00 | 0.00 | 0.00 | 10 | 1010.4 |
| 20260509210018 | 83 | 346 | 3.0 | 10.0 | 0.00 | 0.00 | 0.00 | 10 | 1010.4 |
| 20260509205518 | 84 | 261 | 2.0 | 5.0 | 0.00 | 0.00 | 0.00 | 10 | 1010.4 |
| 20260509205016 | 88 | 155 | 2.0 | 6.0 | 0.00 | 0.00 | 0.00 | 9 | 1010.5 |
| 20260509204518 | 87 | 41 | 2.0 | 6.0 | 0.00 | 0.00 | 0.00 | 9 | 1010.6 |
| 20260509204015 | 86 | 342 | 3.0 | 9.0 | 0.00 | 0.00 | 0.00 | 10 | 1010.6 |
| 20260509203514 | 85 | 360 | 2.0 | 5.0 | 0.00 | 0.00 | 0.00 | 10 | 1010.7 |
| 20260509203014 | 84 | 115 | 2.0 | 7.0 | 0.00 | 0.00 | 0.00 | 10 | 1010.7 |
| 20260509202514 | 82 | 78 | 3.0 | 7.0 | 0.00 | 0.00 | 0.00 | 11 | 1010.7 |
| 20260509202015 | 81 | 215 | 3.0 | 8.0 | 0.00 | 0.00 | 0.00 | 11 | 1010.8 |
| 20260509201514 | 84 | 121 | 3.0 | 7.0 | 0.00 | 0.00 | 0.00 | 10 | 1011.0 |